Weather History for KRAP - October, 2012

Change the Weather History Date:

Friday, October 5, 2012

  Actual Average Record
Temperature  
Mean Temperature 38 °F 52 °F  
Max Temperature 45 °F 66 °F 94 °F (1947)
Min Temperature 30 °F 38 °F 19 °F (1952)
Degree Days  
Heating Degree Days 27 13  
Month to date heating degree days 80 62  
Since 1 July heating degree days 179 286  
Cooling Degree Days 0 0  
Month to date cooling degree days 0 0  
Year to date cooling degree days 937 633  
Moisture  
Dew Point 23 °F    
Average Humidity 56    
Maximum Humidity 72    
Minimum Humidity 39    
Precipitation  
Precipitation 0.00 in 0.05 in 0.71 in (1972)
Month to date precipitation T 0.28  
Year to date precipitation 10.27 14.20  
Snow  
Snow 0.00 in 0.00 in - ()
Month to date snowfall 0.0 0.1  
Since 1 July snowfall 0.0 0.3  
Since 1 September snowfall 0.0 0.3  
Snow Depth 0.00 in    
Sea Level Pressure  
Sea Level Pressure 30.41 in    
Wind  
Wind Speed 5 mph (North)    
Max Wind Speed 14 mph    
Max Gust Speed 17 mph    
Visibility 10 miles    
Events      
T = Trace of Precipitation, MM = Missing Value Source: NWS Daily Summary

Daily Weather History Graph

Daily Weather History Graph

Search for Another Location

Airport or City:

Trip Planner

Search our weather history database for the weather conditions in past years. The results will help you decide how hot, cold, wet, or windy it might be!

Date:

Astronomy

Oct. 05, 2012 Rise Set
Actual Time 6:55 AM MDT 6:24 PM MDT
Civil Twilight 6:26 AM MDT 6:53 PM MDT
Nautical Twilight 5:53 AM MDT 7:27 PM MDT
Astronomical Twilight 5:19 AM MDT 8:00 PM MDT
Moon 9:40 PM MDT (10/5) 12:14 PM MDT (10/5)
Length of Visible Light 12h 27m
Length of Day
11h 29m
Waning Gibbous, 73% of the Moon is Illuminated
Oct 5
Waning Gibbous
Oct 8
Last Quarter
Oct 15
New
Oct 21
First Quarter
Oct 29
Full

Hourly Weather History & Observations

Time (MDT) Temp. Windchill Dew Point Humidity Pressure Visibility Wind Dir Wind Speed Gust Speed Precip Events Conditions
12:52 AM 36.0 °F 33.3 °F 24.1 °F 62% 30.39 in 10.0 mi NNE 3.5 mph - N/A   Overcast
1:52 AM 35.6 °F 29.9 °F 24.8 °F 65% 30.34 in 10.0 mi NNE 6.9 mph - N/A   Overcast
2:52 AM 32.0 °F - 23.0 °F 69% 30.40 in 10.0 mi Calm Calm - N/A   Clear
3:52 AM 32.0 °F 26.4 °F 23.0 °F 69% 30.40 in 10.0 mi NW 5.8 mph - N/A   Overcast
4:52 AM 30.0 °F 21.1 °F 23.0 °F 75% 30.39 in 10.0 mi NNW 10.4 mph - N/A   Mostly Cloudy
5:52 AM 32.0 °F 25.6 °F 24.1 °F 73% 30.41 in 10.0 mi NW 6.9 mph - N/A   Overcast
6:29 AM 33.8 °F 27.7 °F 24.8 °F 70% 30.35 in 10.0 mi NNW 6.9 mph - N/A   Mostly Cloudy
6:52 AM 32.0 °F 27.5 °F 25.0 °F 75% 30.43 in 10.0 mi NNW 4.6 mph - N/A   Overcast
7:52 AM 34.0 °F 28.0 °F 24.1 °F 67% 30.43 in 10.0 mi North 6.9 mph - N/A   Overcast
8:52 AM 37.0 °F 30.4 °F 19.9 °F 50% 30.44 in 10.0 mi NNE 9.2 mph - N/A   Overcast
9:52 AM 37.9 °F 32.7 °F 19.9 °F 48% 30.44 in 10.0 mi NNE 6.9 mph - N/A   Mostly Cloudy
10:52 AM 39.2 °F - 21.2 °F 49% 30.37 in 10.0 mi Calm Calm - N/A   Scattered Clouds
11:52 AM 41.0 °F 39.0 °F 19.9 °F 43% 30.43 in 10.0 mi WNW 3.5 mph - N/A   Scattered Clouds
12:52 PM 42.1 °F 37.7 °F 19.9 °F 41% 30.42 in 10.0 mi NNW 6.9 mph - N/A   Scattered Clouds
1:52 PM 43.0 °F 39.5 °F 19.9 °F 40% 30.40 in 10.0 mi NW 5.8 mph - N/A   Overcast
2:52 PM 43.0 °F 38.8 °F 19.9 °F 40% 30.39 in 10.0 mi NNW 6.9 mph - N/A   Mostly Cloudy
3:52 PM 44.1 °F 40.8 °F 21.0 °F 40% 30.38 in 10.0 mi NE 5.8 mph - N/A   Overcast
4:52 PM 42.1 °F - 21.9 °F 45% 30.40 in 10.0 mi Calm Calm - N/A   Overcast
5:52 PM 42.1 °F - 21.9 °F 45% 30.41 in 10.0 mi Calm Calm - N/A   Overcast
6:52 PM 39.9 °F 36.7 °F 24.1 °F 53% 30.42 in 10.0 mi NNE 4.6 mph - N/A   Overcast
7:52 PM 36.0 °F 32.1 °F 24.1 °F 62% 30.43 in 10.0 mi West 4.6 mph - N/A   Scattered Clouds
8:52 PM 32.0 °F - 24.1 °F 73% 30.43 in 10.0 mi Calm Calm - N/A   Mostly Cloudy
9:52 PM 35.1 °F - 27.0 °F 72% 30.42 in 10.0 mi Calm Calm - N/A   Overcast
10:52 PM 37.0 °F 31.0 °F 27.0 °F 67% 30.41 in 10.0 mi North 8.1 mph - N/A   Overcast
11:52 PM 34.0 °F 25.5 °F 21.0 °F 59% 30.43 in 10.0 mi NNE 11.5 mph - N/A   Overcast